Time,TemperatureF,DewpointF,PressureIn,WindDirection,WindDirectionDegrees,WindSpeedMPH,WindSpeedGustMPH,Humidity,HourlyPrecipIn,Conditions,Clouds,dailyrainin,SoftwareType,DateUTC
2013-04-09 00:02:00,55.0,29.2,29.22,NNW,338,6.9,6.9,37,0.00,CLR,,0.00,WeatherDisplay:10.37,2013-04-09 06:02:00,
2013-04-09 00:07:00,54.9,29.1,29.22,NW,315,5.8,5.8,37,0.00,CLR,,0.00,WeatherDisplay:10.37,2013-04-09 06:07:00,
2013-04-09 00:12:00,54.7,29.5,29.22,NE,45,6.9,6.9,38,0.00,CLR,,0.00,WeatherDisplay:10.37,2013-04-09 06:12:00,
2013-04-09 00:17:00,54.3,29.2,29.21,WNW,292,8.1,8.1,38,0.00,CLR,,0.00,WeatherDisplay:10.37,2013-04-09 06:17:00,
2013-04-09 00:22:00,54.3,29.2,29.20,NNW,338,8.5,8.5,38,0.00,CLR,,0.00,WeatherDisplay:10.37,2013-04-09 06:22:00,
2013-04-09 00:27:00,54.1,29.1,29.20,North,0,5.9,5.9,38,0.00,CLR,,0.00,WeatherDisplay:10.37,2013-04-09 06:27:00,
2013-04-09 00:32:00,54.1,29.1,29.22,West,270,2.3,2.3,38,0.00,CLR,,0.00,WeatherDisplay:10.37,2013-04-09 06:32:00,
2013-04-09 00:37:00,54.0,28.9,29.21,West,270,3.5,3.5,38,0.00,CLR,,0.00,WeatherDisplay:10.37,2013-04-09 06:37:00,
2013-04-09 00:42:00,53.8,29.4,29.20,NW,315,4.6,4.6,39,0.00,CLR,,0.00,WeatherDisplay:10.37,2013-04-09 06:42:00,
2013-04-09 00:47:00,53.6,29.2,29.20,NNW,338,4.6,4.6,39,0.00,CLR,,0.00,WeatherDisplay:10.37,2013-04-09 06:47:00,
2013-04-09 00:52:00,53.6,28.6,29.20,SE,135,3.5,3.5,38,0.00,CLR,,0.00,WeatherDisplay:10.37,2013-04-09 06:52:00,
2013-04-09 00:57:00,53.4,29.1,29.21,WNW,292,2.3,2.3,39,0.00,CLR,,0.00,WeatherDisplay:10.37,2013-04-09 06:57:00,
2013-04-09 01:02:00,53.2,29.5,29.21,NW,315,3.1,3.1,40,0.00,CLR,,0.00,WeatherDisplay:10.37,2013-04-09 07:02:00,
2013-04-09 01:07:00,52.9,29.2,29.21,ENE,68,5.8,5.8,40,0.00,CLR,,0.00,WeatherDisplay:10.37,2013-04-09 07:07:00,
2013-04-09 01:12:00,52.9,29.2,29.20,NNW,338,4.5,4.5,40,0.00,CLR,,0.00,WeatherDisplay:10.37,2013-04-09 07:12:00,
2013-04-09 01:17:00,52.7,29.0,29.20,West,270,3.5,3.5,40,0.00,CLR,,0.00,WeatherDisplay:10.37,2013-04-09 07:17:00,
2013-04-09 01:22:00,52.5,28.9,29.20,NW,315,3.5,3.6,40,0.00,CLR,,0.00,WeatherDisplay:10.37,2013-04-09 07:22:00,
2013-04-09 01:27:00,52.3,28.7,29.20,WNW,292,2.4,2.4,40,0.00,CLR,,0.00,WeatherDisplay:10.37,2013-04-09 07:27:00,
2013-04-09 01:32:00,52.3,29.3,29.20,West,270,3.5,3.5,41,0.00,CLR,,0.00,WeatherDisplay:10.37,2013-04-09 07:32:00,
2013-04-09 01:37:00,52.2,29.1,29.20,NNW,338,5.4,5.4,41,0.00,CLR,,0.00,WeatherDisplay:10.37,2013-04-09 07:37:00,
2013-04-09 01:42:00,52.0,29.0,29.20,NW,315,2.3,2.3,41,0.00,CLR,,0.00,WeatherDisplay:10.37,2013-04-09 07:42:00,
2013-04-09 01:47:00,51.8,28.8,29.20,NW,315,3.5,3.5,41,0.00,CLR,,0.00,WeatherDisplay:10.37,2013-04-09 07:47:00,
2013-04-09 01:52:00,51.6,28.7,29.19,NW,315,2.3,2.3,41,0.00,CLR,,0.00,WeatherDisplay:10.37,2013-04-09 07:52:00,
2013-04-09 01:57:00,51.4,28.5,29.19,NE,45,4.6,4.6,41,0.00,CLR,,0.00,WeatherDisplay:10.37,2013-04-09 07:57:00,
2013-04-09 02:02:00,51.3,28.9,29.18,NW,315,2.4,2.4,42,0.00,CLR,,0.00,WeatherDisplay:10.37,2013-04-09 08:02:00,
2013-04-09 02:07:00,51.1,28.2,29.17,WSW,248,2.4,2.4,41,0.00,CLR,,0.00,WeatherDisplay:10.37,2013-04-09 08:07:00,
2013-04-09 02:12:00,51.1,28.8,29.17,NNW,338,2.3,2.3,42,0.00,CLR,,0.00,WeatherDisplay:10.37,2013-04-09 08:12:00,
2013-04-09 02:17:00,50.9,28.0,29.17,East,90,1.2,1.2,41,0.00,CLR,,0.00,WeatherDisplay:10.37,2013-04-09 08:17:00,
2013-04-09 02:22:00,50.9,28.0,29.17,NNW,338,1.2,1.2,41,0.00,CLR,,0.00,WeatherDisplay:10.37,2013-04-09 08:22:00,
2013-04-09 02:27:00,50.7,28.4,29.17,West,270,1.2,0.0,42,0.00,CLR,,0.00,WeatherDisplay:10.37,2013-04-09 08:27:00,
2013-04-09 02:32:00,50.7,27.8,29.17,NW,315,0.0,1.2,41,0.00,CLR,,0.00,WeatherDisplay:10.37,2013-04-09 08:32:00,
2013-04-09 02:37:00,50.7,28.4,29.17,WSW,248,1.2,1.2,42,0.00,CLR,,0.00,WeatherDisplay:10.37,2013-04-09 08:37:00,
2013-04-09 02:42:00,50.7,29.0,29.17,SW,225,1.2,1.2,43,0.00,CLR,,0.00,WeatherDisplay:10.37,2013-04-09 08:42:00,
2013-04-09 02:47:00,50.5,28.3,29.17,West,270,1.2,1.2,42,0.00,CLR,,0.00,WeatherDisplay:10.37,2013-04-09 08:47:00,
2013-04-09 02:52:00,50.4,28.7,29.18,WSW,248,4.6,4.6,43,0.00,CLR,,0.00,WeatherDisplay:10.37,2013-04-09 08:52:00,
2013-04-09 02:57:00,50.4,28.7,29.19,NW,315,4.6,4.6,43,0.00,CLR,,0.00,WeatherDisplay:10.37,2013-04-09 08:57:00,
2013-04-09 03:02:00,50.4,28.7,29.19,SSW,202,1.2,2.9,43,0.00,CLR,,0.00,WeatherDisplay:10.37,2013-04-09 09:02:00,
2013-04-09 03:07:00,50.2,27.9,29.19,SW,225,3.5,3.5,42,0.00,CLR,,0.00,WeatherDisplay:10.37,2013-04-09 09:07:00,
2013-04-09 03:12:00,50.0,28.4,29.19,West,270,2.3,2.3,43,0.00,CLR,,0.00,WeatherDisplay:10.37,2013-04-09 09:12:00,
2013-04-09 03:17:00,49.8,28.8,29.19,NW,315,3.5,3.5,44,0.00,CLR,,0.00,WeatherDisplay:10.37,2013-04-09 09:17:00,
2013-04-09 03:23:00,49.6,28.0,29.18,NW,315,2.3,2.3,43,0.00,CLR,,0.00,WeatherDisplay:10.37,2013-04-09 09:23:00,
2013-04-09 03:28:00,49.5,28.4,29.17,NNW,338,3.5,3.5,44,0.00,CLR,,0.00,WeatherDisplay:10.37,2013-04-09 09:28:00,
2013-04-09 03:33:00,49.5,28.4,29.17,North,0,2.3,2.3,44,0.00,CLR,,0.00,WeatherDisplay:10.37,2013-04-09 09:33:00,
2013-04-09 03:38:00,49.5,28.4,29.17,North,0,2.3,2.3,44,0.00,CLR,,0.00,WeatherDisplay:10.37,2013-04-09 09:38:00,
2013-04-09 03:43:00,49.5,28.4,29.17,NNE,22,1.2,1.2,44,0.00,CLR,,0.00,WeatherDisplay:10.37,2013-04-09 09:43:00,
2013-04-09 03:48:00,49.5,28.4,29.17,West,270,2.3,2.3,44,0.00,CLR,,0.00,WeatherDisplay:10.37,2013-04-09 09:48:00,
2013-04-09 03:53:00,49.5,29.0,29.17,WNW,292,3.5,3.5,45,0.00,CLR,,0.00,WeatherDisplay:10.37,2013-04-09 09:53:00,
2013-04-09 03:58:00,49.5,29.5,29.17,West,270,3.3,3.3,46,0.00,CLR,,0.00,WeatherDisplay:10.37,2013-04-09 09:58:00,
2013-04-09 04:03:00,49.5,30.0,29.17,NW,315,3.5,3.5,47,0.00,CLR,,0.00,WeatherDisplay:10.37,2013-04-09 10:03:00,
2013-04-09 04:08:00,49.3,29.4,29.18,WNW,292,1.8,1.8,46,0.00,CLR,,0.00,WeatherDisplay:10.37,2013-04-09 10:08:00,
2013-04-09 04:13:00,49.3,29.4,29.17,NW,315,3.5,3.5,46,0.00,CLR,,0.00,WeatherDisplay:10.37,2013-04-09 10:13:00,
2013-04-09 04:18:00,49.3,30.4,29.16,NNW,338,2.9,2.9,48,0.00,CLR,,0.00,WeatherDisplay:10.37,2013-04-09 10:18:00,
2013-04-09 04:23:00,49.3,29.9,29.16,East,90,2.4,2.4,47,0.00,CLR,,0.00,WeatherDisplay:10.37,2013-04-09 10:23:00,
2013-04-09 04:28:00,49.3,29.9,29.16,North,0,2.3,2.3,47,0.00,CLR,,0.00,WeatherDisplay:10.37,2013-04-09 10:28:00,
2013-04-09 04:33:00,49.3,29.4,29.16,East,90,4.6,4.6,46,0.00,CLR,,0.00,WeatherDisplay:10.37,2013-04-09 10:33:00,
2013-04-09 04:38:00,49.5,29.5,29.16,ENE,68,2.3,2.3,46,0.00,CLR,,0.00,WeatherDisplay:10.37,2013-04-09 10:38:00,
2013-04-09 04:43:00,49.5,29.5,29.16,NW,315,4.3,4.3,46,0.00,CLR,,0.00,WeatherDisplay:10.37,2013-04-09 10:43:00,
2013-04-09 04:48:00,49.6,29.1,29.16,West,270,1.2,1.2,45,0.00,CLR,,0.00,WeatherDisplay:10.37,2013-04-09 10:48:00,
2013-04-09 04:54:00,49.8,29.3,29.16,West,270,1.2,1.2,45,0.00,CLR,,0.00,WeatherDisplay:10.37,2013-04-09 10:54:00,
2013-04-09 04:59:00,49.8,29.3,29.17,WSW,248,6.9,6.9,45,0.00,CLR,,0.00,WeatherDisplay:10.37,2013-04-09 10:59:00,
2013-04-09 05:04:00,50.0,30.0,29.18,SW,225,6.9,6.9,46,0.00,CLR,,0.00,WeatherDisplay:10.37,2013-04-09 11:04:00,
2013-04-09 05:09:00,49.8,32.4,29.18,WSW,248,8.1,8.1,51,0.00,CLR,,0.00,WeatherDisplay:10.37,2013-04-09 11:09:00,
2013-04-09 05:14:00,49.3,32.4,29.19,SSW,202,6.2,6.2,52,0.00,CLR,,0.00,WeatherDisplay:10.37,2013-04-09 11:14:00,
2013-04-09 05:19:00,48.9,32.0,29.19,WSW,248,5.8,5.8,52,0.00,CLR,,0.00,WeatherDisplay:10.37,2013-04-09 11:19:00,
2013-04-09 05:24:00,48.6,33.6,29.19,WSW,248,9.2,9.2,56,0.00,CLR,,0.00,WeatherDisplay:10.37,2013-04-09 11:24:00,
2013-04-09 05:30:00,47.8,32.9,29.20,WSW,249,5.0,8.0,56,0.00,CLR,,0.00,WeatherDisplay:10.37,2013-04-09 11:30:00,
2013-04-09 05:35:00,47.5,33.4,29.20,SW,225,6.9,6.9,58,0.00,CLR,,0.00,WeatherDisplay:10.37,2013-04-09 11:35:00,
2013-04-09 05:40:00,47.7,33.2,29.21,SSE,158,8.1,8.1,57,0.00,CLR,,0.00,WeatherDisplay:10.37,2013-04-09 11:40:00,
2013-04-09 05:45:00,47.7,33.2,29.20,SSE,158,6.9,6.9,57,0.00,CLR,,0.00,WeatherDisplay:10.37,2013-04-09 11:45:00,
2013-04-09 05:50:00,47.5,33.0,29.20,SSE,153,3.0,8.0,57,0.00,CLR,,0.00,WeatherDisplay:10.37,2013-04-09 11:50:00,
2013-04-09 05:55:00,47.5,33.0,29.20,SE,135,3.5,3.5,57,0.00,CLR,,0.00,WeatherDisplay:10.37,2013-04-09 11:55:00,
2013-04-09 06:00:00,47.5,32.6,29.21,South,180,5.8,5.8,56,0.00,CLR,,0.00,WeatherDisplay:10.37,2013-04-09 12:00:00,
2013-04-09 06:05:00,47.5,32.6,29.21,South,180,3.5,3.5,56,0.00,CLR,,0.00,WeatherDisplay:10.37,2013-04-09 12:05:00,
2013-04-09 06:10:00,47.5,32.6,29.21,SSW,202,3.5,3.5,56,0.00,CLR,,0.00,WeatherDisplay:10.37,2013-04-09 12:10:00,
2013-04-09 06:15:00,47.5,32.6,29.20,SE,135,5.8,5.8,56,0.00,CLR,,0.00,WeatherDisplay:10.37,2013-04-09 12:15:00,
2013-04-09 06:20:00,47.5,32.6,29.21,SE,135,6.9,6.9,56,0.00,CLR,,0.00,WeatherDisplay:10.37,2013-04-09 12:20:00,
2013-04-09 06:25:00,47.3,32.4,29.21,ESE,120,2.0,5.0,56,0.00,CLR,,0.00,WeatherDisplay:10.37,2013-04-09 12:25:00,
2013-04-09 06:30:00,47.3,31.9,29.21,SE,135,4.6,4.6,55,0.00,CLR,,0.00,WeatherDisplay:10.37,2013-04-09 12:30:00,
2013-04-09 06:35:00,47.5,31.6,29.22,SW,225,3.6,3.6,54,0.00,CLR,,0.00,WeatherDisplay:10.37,2013-04-09 12:35:00,
2013-04-09 06:40:00,47.5,32.1,29.22,SE,135,2.3,2.3,55,0.00,CLR,,0.00,WeatherDisplay:10.37,2013-04-09 12:40:00,
2013-04-09 06:45:00,47.5,32.1,29.22,SW,225,2.3,3.1,55,0.00,CLR,,0.00,WeatherDisplay:10.37,2013-04-09 12:45:00,
2013-04-09 06:50:00,47.5,32.1,29.23,South,180,5.8,5.8,55,0.00,CLR,,0.00,WeatherDisplay:10.37,2013-04-09 12:50:00,
2013-04-09 06:55:00,47.7,30.9,29.23,SSW,202,8.1,8.1,52,0.00,CLR,,0.00,WeatherDisplay:10.37,2013-04-09 12:55:00,
2013-04-09 07:00:00,47.8,30.1,29.24,SSW,202,6.9,6.9,50,0.00,CLR,,0.00,WeatherDisplay:10.37,2013-04-09 13:00:00,
2013-04-09 07:05:00,47.8,29.6,29.24,SW,225,6.9,6.9,49,0.00,CLR,,0.00,WeatherDisplay:10.37,2013-04-09 13:05:00,
2013-04-09 07:10:00,47.7,28.9,29.24,SSW,202,9.2,9.2,48,0.00,CLR,,0.00,WeatherDisplay:10.37,2013-04-09 13:10:00,
2013-04-09 07:15:00,47.5,29.3,29.24,SW,225,6.9,6.9,49,0.00,CLR,,0.00,WeatherDisplay:10.37,2013-04-09 13:15:00,
2013-04-09 07:20:00,47.1,28.9,29.24,SSW,202,6.9,6.9,49,0.00,CLR,,0.00,WeatherDisplay:10.37,2013-04-09 13:20:00,
2013-04-09 07:25:00,46.9,29.2,29.25,SW,225,7.8,7.8,50,0.00,CLR,,0.00,WeatherDisplay:10.37,2013-04-09 13:25:00,
2013-04-09 07:30:00,46.8,28.6,29.25,SW,225,11.5,11.5,49,0.00,CLR,,0.00,WeatherDisplay:10.37,2013-04-09 13:30:00,
2013-04-09 07:35:00,46.6,28.9,29.25,West,270,6.9,6.9,50,0.00,CLR,,0.00,WeatherDisplay:10.37,2013-04-09 13:35:00,
2013-04-09 07:40:00,46.2,28.6,29.26,SW,225,8.1,8.1,50,0.00,CLR,,0.00,WeatherDisplay:10.37,2013-04-09 13:40:00,
2013-04-09 07:45:00,46.0,29.4,29.26,SSW,202,10.4,10.4,52,0.00,CLR,,0.00,WeatherDisplay:10.37,2013-04-09 13:45:00,
2013-04-09 07:50:00,45.7,28.6,29.27,South,180,9.2,9.2,51,0.00,CLR,,0.00,WeatherDisplay:10.37,2013-04-09 13:50:00,
2013-04-09 07:55:00,45.7,28.6,29.27,SW,225,8.3,8.3,51,0.00,CLR,,0.00,WeatherDisplay:10.37,2013-04-09 13:55:00,
2013-04-09 08:00:00,45.5,26.4,29.27,SW,225,10.4,10.4,47,0.00,CLR,,0.00,WeatherDisplay:10.37,2013-04-09 14:00:00,
2013-04-09 08:06:00,45.1,25.6,29.27,SW,225,11.5,11.5,46,0.00,CLR,,0.00,WeatherDisplay:10.37,2013-04-09 14:06:00,
2013-04-09 08:11:00,44.8,25.8,29.27,SW,225,16.1,16.1,47,0.00,CLR,,0.00,WeatherDisplay:10.37,2013-04-09 14:11:00,
2013-04-09 08:18:00,44.4,25.4,29.27,SSW,202,10.4,10.4,47,0.00,CLR,,0.00,WeatherDisplay:10.37,2013-04-09 14:18:00,
2013-04-09 08:23:00,44.2,25.3,29.27,SW,225,8.1,8.1,47,0.00,CLR,,0.00,WeatherDisplay:10.37,2013-04-09 14:23:00,
2013-04-09 08:28:00,44.2,25.8,29.27,South,180,11.5,11.5,48,0.00,CLR,,0.00,WeatherDisplay:10.37,2013-04-09 14:28:00,
2013-04-09 08:33:00,44.2,25.8,29.27,SSE,158,11.4,11.4,48,0.00,CLR,,0.00,WeatherDisplay:10.37,2013-04-09 14:33:00,
2013-04-09 08:38:00,44.6,25.6,29.28,NE,45,8.1,8.1,47,0.00,CLR,,0.00,WeatherDisplay:10.37,2013-04-09 14:38:00,
2013-04-09 08:43:00,45.0,25.4,29.28,SSE,158,16.1,16.1,46,0.00,CLR,,0.00,WeatherDisplay:10.37,2013-04-09 14:43:00,
2013-04-09 08:48:00,45.0,25.4,29.28,SSW,202,8.1,8.1,46,0.00,CLR,,0.00,WeatherDisplay:10.37,2013-04-09 14:48:00,
2013-04-09 08:53:00,45.1,26.1,29.28,SSW,202,8.5,8.5,47,0.00,CLR,,0.00,WeatherDisplay:10.37,2013-04-09 14:53:00,
2013-04-09 08:58:00,45.0,25.9,29.28,SSE,158,9.2,9.2,47,0.00,CLR,,0.00,WeatherDisplay:10.37,2013-04-09 14:58:00,
2013-04-09 09:03:00,45.1,26.1,29.29,South,180,11.8,11.8,47,0.00,CLR,,0.00,WeatherDisplay:10.37,2013-04-09 15:03:00,
2013-04-09 09:08:00,45.3,25.7,29.29,SE,135,10.4,10.4,46,0.00,CLR,,0.00,WeatherDisplay:10.37,2013-04-09 15:08:00,
2013-04-09 09:13:00,45.7,26.1,29.29,SE,135,8.1,8.1,46,0.00,CLR,,0.00,WeatherDisplay:10.37,2013-04-09 15:13:00,
2013-04-09 09:18:00,45.7,25.5,29.30,SW,225,6.9,6.9,45,0.00,CLR,,0.00,WeatherDisplay:10.37,2013-04-09 15:18:00,
2013-04-09 09:23:00,45.9,25.7,29.30,SSE,158,5.8,5.8,45,0.00,CLR,,0.00,WeatherDisplay:10.37,2013-04-09 15:23:00,
2013-04-09 09:28:00,45.7,26.1,29.31,SW,225,13.8,13.8,46,0.00,CLR,,0.00,WeatherDisplay:10.37,2013-04-09 15:28:00,
2013-04-09 09:33:00,45.0,25.9,29.31,SSW,202,6.9,6.9,47,0.00,CLR,,0.00,WeatherDisplay:10.37,2013-04-09 15:33:00,
2013-04-09 09:38:00,44.8,26.3,29.32,SSE,158,9.2,9.2,48,0.00,CLR,,0.00,WeatherDisplay:10.37,2013-04-09 15:38:00,
2013-04-09 09:43:00,44.6,26.1,29.32,West,270,4.6,4.6,48,0.00,CLR,,0.00,WeatherDisplay:10.37,2013-04-09 15:43:00,
2013-04-09 09:48:00,44.2,28.2,29.32,West,270,13.8,13.8,53,0.00,CLR,,0.00,WeatherDisplay:10.37,2013-04-09 15:48:00,
2013-04-09 09:53:00,43.5,28.4,29.32,WSW,248,3.5,3.6,55,0.00,CLR,,0.00,WeatherDisplay:10.37,2013-04-09 15:53:00,
2013-04-09 09:58:00,43.0,29.2,29.32,SW,225,5.8,5.8,58,0.00,CLR,,0.00,WeatherDisplay:10.37,2013-04-09 15:58:00,
2013-04-09 10:03:00,43.2,29.4,29.33,SW,225,8.1,8.1,58,0.00,CLR,,0.00,WeatherDisplay:10.37,2013-04-09 16:03:00,
2013-04-09 10:08:00,43.2,30.2,29.33,WSW,248,8.1,8.1,60,0.00,CLR,,0.00,WeatherDisplay:10.37,2013-04-09 16:08:00,
2013-04-09 10:13:00,42.8,30.7,29.34,SW,225,5.2,5.2,62,0.00,CLR,,0.00,WeatherDisplay:10.37,2013-04-09 16:13:00,
2013-04-09 10:18:00,42.8,31.1,29.34,WNW,292,6.9,6.9,63,0.00,CLR,,0.00,WeatherDisplay:10.37,2013-04-09 16:18:00,
2013-04-09 10:23:00,42.8,30.7,29.34,WNW,292,2.3,2.3,62,0.00,CLR,,0.00,WeatherDisplay:10.37,2013-04-09 16:23:00,
2013-04-09 10:28:00,43.0,30.4,29.34,SW,225,3.5,3.5,61,0.00,CLR,,0.00,WeatherDisplay:10.37,2013-04-09 16:28:00,
2013-04-09 10:33:00,43.5,31.4,29.34,WSW,248,4.0,4.0,62,0.00,CLR,,0.00,WeatherDisplay:10.37,2013-04-09 16:33:00,
2013-04-09 10:38:00,44.1,30.6,29.34,West,270,4.6,4.6,59,0.00,CLR,,0.00,WeatherDisplay:10.37,2013-04-09 16:38:00,
2013-04-09 10:43:00,44.4,30.1,29.34,WSW,248,1.2,1.2,57,0.00,CLR,,0.00,WeatherDisplay:10.37,2013-04-09 16:43:00,
2013-04-09 10:48:00,44.6,30.3,29.34,SW,225,2.3,2.3,57,0.00,CLR,,0.00,WeatherDisplay:10.37,2013-04-09 16:48:00,
2013-04-09 10:53:00,45.1,30.8,29.34,SSE,158,1.2,1.2,57,0.00,CLR,,0.00,WeatherDisplay:10.37,2013-04-09 16:53:00,
2013-04-09 10:58:00,45.9,31.5,29.35,SSW,202,2.3,2.3,57,0.00,CLR,,0.00,WeatherDisplay:10.37,2013-04-09 16:58:00,
2013-04-09 11:03:00,46.4,30.2,29.34,SW,225,4.6,4.6,53,0.00,CLR,,0.00,WeatherDisplay:10.37,2013-04-09 17:03:00,
2013-04-09 11:08:00,46.4,30.2,29.34,WSW,248,2.3,2.3,53,0.00,CLR,,0.00,WeatherDisplay:10.37,2013-04-09 17:08:00,
2013-04-09 11:14:00,46.8,30.0,29.34,WSW,248,3.8,3.8,52,0.00,CLR,,0.00,WeatherDisplay:10.37,2013-04-09 17:14:00,
2013-04-09 11:19:00,47.1,30.4,29.34,WSW,248,0.7,0.7,52,0.00,CLR,,0.00,WeatherDisplay:10.37,2013-04-09 17:19:00,
2013-04-09 11:24:00,47.5,29.3,29.34,SW,225,8.1,8.1,49,0.00,CLR,,0.00,WeatherDisplay:10.37,2013-04-09 17:24:00,
2013-04-09 11:29:00,47.7,28.4,29.34,SW,225,6.9,6.9,47,0.00,CLR,,0.00,WeatherDisplay:10.37,2013-04-09 17:29:00,
2013-04-09 11:34:00,48.6,28.7,29.34,South,180,4.6,4.6,46,0.00,CLR,,0.00,WeatherDisplay:10.37,2013-04-09 17:34:00,
2013-04-09 11:39:00,48.9,28.5,29.35,WSW,248,5.8,5.8,45,0.00,CLR,,0.00,WeatherDisplay:10.37,2013-04-09 17:39:00,
2013-04-09 11:45:00,48.2,27.9,29.34,WSW,253,2.0,6.0,45,0.00,CLR,,0.00,WeatherDisplay:10.37,2013-04-09 17:45:00,
2013-04-09 11:50:00,47.8,28.0,29.35,NNE,22,3.5,3.5,46,0.00,CLR,,0.00,WeatherDisplay:10.37,2013-04-09 17:50:00,
2013-04-09 11:54:00,47.8,28.6,29.35,WSW,248,3.5,3.5,47,0.00,CLR,,0.00,WeatherDisplay:10.37,2013-04-09 17:54:00,
2013-04-09 11:59:00,48.2,28.4,29.35,West,270,4.7,4.7,46,0.00,CLR,,0.00,WeatherDisplay:10.37,2013-04-09 17:59:00,
2013-04-09 12:04:00,48.6,28.7,29.35,SW,225,4.6,4.6,46,0.00,CLR,,0.00,WeatherDisplay:10.37,2013-04-09 18:04:00,
2013-04-09 12:09:00,49.6,29.1,29.35,WSW,248,4.6,4.6,45,0.00,CLR,,0.00,WeatherDisplay:10.37,2013-04-09 18:09:00,
2013-04-09 12:14:00,50.2,29.1,29.35,NNW,338,4.6,4.6,44,0.00,CLR,,0.00,WeatherDisplay:10.37,2013-04-09 18:14:00,
2013-04-09 12:20:00,51.2,30.1,29.34,NW,319,2.0,4.0,44,0.00,CLR,,0.00,WeatherDisplay:10.37,2013-04-09 18:20:00,
2013-04-09 12:25:00,52.1,30.2,29.34,NNE,26,2.0,5.0,43,0.00,CLR,,0.00,WeatherDisplay:10.37,2013-04-09 18:25:00,
2013-04-09 12:29:00,52.3,29.3,29.35,SW,225,2.3,2.3,41,0.00,CLR,,0.00,WeatherDisplay:10.37,2013-04-09 18:29:00,
2013-04-09 12:34:00,52.3,29.9,29.35,WSW,248,2.3,2.3,42,0.00,CLR,,0.00,WeatherDisplay:10.37,2013-04-09 18:34:00,
2013-04-09 12:39:00,52.2,29.7,29.35,NNW,338,2.4,2.4,42,0.00,CLR,,0.00,WeatherDisplay:10.37,2013-04-09 18:39:00,
2013-04-09 12:45:00,52.4,29.4,29.35,WSW,246,6.0,7.0,41,0.00,CLR,,0.00,WeatherDisplay:10.37,2013-04-09 18:45:00,
2013-04-09 12:49:00,51.4,29.1,29.35,West,270,8.1,8.1,42,0.00,CLR,,0.00,WeatherDisplay:10.37,2013-04-09 18:49:00,
2013-04-09 12:54:00,50.4,28.7,29.35,West,270,5.8,5.8,43,0.00,CLR,,0.00,WeatherDisplay:10.37,2013-04-09 18:54:00,
2013-04-09 13:00:00,50.0,28.4,29.36,WSW,238,6.0,7.0,43,0.00,CLR,,0.00,WeatherDisplay:10.37,2013-04-09 19:00:00,
2013-04-09 13:05:00,49.6,28.0,29.36,SW,228,6.0,7.0,43,0.00,CLR,,0.00,WeatherDisplay:10.37,2013-04-09 19:05:00,
2013-04-09 13:10:00,49.1,27.5,29.36,SW,225,10.4,10.4,43,0.00,CLR,,0.00,WeatherDisplay:10.37,2013-04-09 19:10:00,
2013-04-09 13:15:00,48.5,27.6,29.36,South,180,7.0,11.0,44,0.00,CLR,,0.00,WeatherDisplay:10.37,2013-04-09 19:15:00,
2013-04-09 13:20:00,48.0,28.7,29.37,SSE,163,3.0,13.0,47,0.00,CLR,,0.00,WeatherDisplay:10.37,2013-04-09 19:20:00,
2013-04-09 13:24:00,47.5,29.3,29.36,ENE,68,6.2,6.2,49,0.00,CLR,,0.00,WeatherDisplay:10.37,2013-04-09 19:24:00,
2013-04-09 13:30:00,47.2,28.5,29.36,ESE,114,3.0,6.0,48,0.00,CLR,,0.00,WeatherDisplay:10.37,2013-04-09 19:30:00,
2013-04-09 13:35:00,47.1,27.4,29.37,SE,125,3.0,10.0,46,0.00,CLR,,0.00,WeatherDisplay:10.37,2013-04-09 19:35:00,
2013-04-09 13:40:00,47.1,29.4,29.37,SSE,157,3.0,12.0,50,0.00,CLR,,0.00,WeatherDisplay:10.37,2013-04-09 19:40:00,
2013-04-09 13:45:00,45.9,29.7,29.38,South,185,5.0,12.0,53,0.00,CLR,,0.00,WeatherDisplay:10.37,2013-04-09 19:45:00,
2013-04-09 13:50:00,44.8,29.1,29.37,East,90,2.6,2.6,54,0.00,CLR,,0.00,WeatherDisplay:10.37,2013-04-09 19:50:00,
2013-04-09 13:55:00,44.8,30.0,29.36,ENE,68,4.6,4.6,56,0.00,CLR,,0.00,WeatherDisplay:10.37,2013-04-09 19:55:00,
2013-04-09 14:00:00,45.0,30.6,29.36,ESE,112,6.9,6.9,57,0.00,CLR,,0.00,WeatherDisplay:10.37,2013-04-09 20:00:00,
2013-04-09 14:05:00,45.1,30.4,29.37,East,90,8.1,8.1,56,0.00,CLR,,0.00,WeatherDisplay:10.37,2013-04-09 20:05:00,
2013-04-09 14:10:00,45.3,30.1,29.37,East,90,5.8,5.8,55,0.00,CLR,,0.00,WeatherDisplay:10.37,2013-04-09 20:10:00,
2013-04-09 14:15:00,45.3,30.5,29.37,SW,225,4.6,4.6,56,0.00,CLR,,0.00,WeatherDisplay:10.37,2013-04-09 20:15:00,
2013-04-09 14:20:00,45.7,30.4,29.37,South,180,4.7,4.7,55,0.00,CLR,,0.00,WeatherDisplay:10.37,2013-04-09 20:20:00,
2013-04-09 14:25:00,45.7,30.4,29.37,SE,135,5.8,5.8,55,0.00,CLR,,0.00,WeatherDisplay:10.37,2013-04-09 20:25:00,
2013-04-09 14:30:00,45.5,30.3,29.37,SSW,202,7.4,7.4,55,0.00,CLR,,0.00,WeatherDisplay:10.37,2013-04-09 20:30:00,
2013-04-09 14:35:00,45.5,31.1,29.38,South,180,6.9,6.9,57,0.00,CLR,,0.00,WeatherDisplay:10.37,2013-04-09 20:35:00,
2013-04-09 14:40:00,45.1,30.8,29.38,South,180,4.6,4.6,57,0.00,CLR,,0.00,WeatherDisplay:10.37,2013-04-09 20:40:00,
2013-04-09 14:45:00,45.0,30.6,29.38,ESE,112,1.2,1.2,57,0.00,CLR,,0.00,WeatherDisplay:10.37,2013-04-09 20:45:00,
2013-04-09 14:50:00,45.1,33.3,29.37,East,90,4.6,4.6,63,0.00,CLR,,0.00,WeatherDisplay:10.37,2013-04-09 20:50:00,
2013-04-09 14:55:00,45.5,32.4,29.38,SE,135,4.6,4.6,60,0.00,CLR,,0.00,WeatherDisplay:10.37,2013-04-09 20:55:00,
2013-04-09 15:00:00,45.9,32.7,29.38,SSE,158,4.6,4.6,60,0.00,CLR,,0.00,WeatherDisplay:10.37,2013-04-09 21:00:00,
2013-04-09 15:05:00,45.7,32.6,29.39,SSW,202,3.5,3.5,60,0.00,CLR,,0.00,WeatherDisplay:10.37,2013-04-09 21:05:00,
2013-04-09 15:11:00,45.7,32.6,29.39,ESE,112,3.5,3.5,60,0.00,CLR,,0.00,WeatherDisplay:10.37,2013-04-09 21:11:00,
2013-04-09 15:16:00,45.5,32.8,29.40,South,180,3.5,3.5,61,0.00,CLR,,0.00,WeatherDisplay:10.37,2013-04-09 21:16:00,
2013-04-09 15:21:00,45.0,32.3,29.40,SSE,158,10.4,10.4,61,0.00,CLR,,0.00,WeatherDisplay:10.37,2013-04-09 21:21:00,
2013-04-09 15:26:00,44.4,32.2,29.40,South,180,4.6,4.6,62,0.00,CLR,,0.00,WeatherDisplay:10.37,2013-04-09 21:26:00,
2013-04-09 15:31:00,44.1,32.3,29.41,ESE,112,1.2,1.2,63,0.00,CLR,,0.00,WeatherDisplay:10.37,2013-04-09 21:31:00,
2013-04-09 15:36:00,43.7,32.7,29.41,WSW,248,5.8,5.8,65,0.00,CLR,,0.00,WeatherDisplay:10.37,2013-04-09 21:36:00,
2013-04-09 15:41:00,43.0,32.0,29.41,SSW,202,2.3,2.3,65,0.00,CLR,,0.00,WeatherDisplay:10.37,2013-04-09 21:41:00,
2013-04-09 15:46:00,42.4,31.9,29.42,South,180,4.6,4.6,66,0.00,CLR,,0.00,WeatherDisplay:10.37,2013-04-09 21:46:00,
2013-04-09 15:51:00,42.1,31.5,29.42,SW,225,3.5,3.5,66,0.00,CLR,,0.00,WeatherDisplay:10.37,2013-04-09 21:51:00,
2013-04-09 15:56:00,42.1,31.9,29.42,SSE,158,4.6,4.6,67,0.00,CLR,,0.00,WeatherDisplay:10.37,2013-04-09 21:56:00,
2013-04-09 16:01:00,41.9,31.7,29.43,SE,135,2.3,2.3,67,0.00,CLR,,0.00,WeatherDisplay:10.37,2013-04-09 22:01:00,
2013-04-09 16:06:00,41.5,31.4,29.43,ESE,112,0.5,0.5,67,0.00,CLR,,0.00,WeatherDisplay:10.37,2013-04-09 22:06:00,
2013-04-09 16:11:00,41.5,31.8,29.42,ENE,68,3.6,3.6,68,0.00,CLR,,0.00,WeatherDisplay:10.37,2013-04-09 22:11:00,
2013-04-09 16:16:00,41.4,32.3,29.41,SE,135,4.6,4.6,70,0.00,CLR,,0.00,WeatherDisplay:10.37,2013-04-09 22:16:00,
2013-04-09 16:21:00,41.2,32.8,29.40,East,90,5.8,5.8,72,0.00,CLR,,0.00,WeatherDisplay:10.37,2013-04-09 22:21:00,
2013-04-09 16:26:00,41.0,32.7,29.40,SSE,158,4.6,4.6,72,0.00,CLR,,0.00,WeatherDisplay:10.37,2013-04-09 22:26:00,
2013-04-09 16:31:00,41.2,33.2,29.40,ESE,112,4.6,4.6,73,0.00,CLR,,0.00,WeatherDisplay:10.37,2013-04-09 22:31:00,
2013-04-09 16:36:00,41.5,33.5,29.40,SE,135,8.1,8.1,73,0.00,CLR,,0.00,WeatherDisplay:10.37,2013-04-09 22:36:00,
2013-04-09 16:41:00,42.1,34.0,29.40,SE,135,6.9,6.9,73,0.00,CLR,,0.00,WeatherDisplay:10.37,2013-04-09 22:41:00,
2013-04-09 16:46:00,42.3,34.2,29.40,East,90,6.9,6.9,73,0.00,CLR,,0.00,WeatherDisplay:10.37,2013-04-09 22:46:00,
2013-04-09 16:51:00,42.6,34.2,29.40,SE,135,6.9,6.9,72,0.00,CLR,,0.00,WeatherDisplay:10.37,2013-04-09 22:51:00,
2013-04-09 16:57:00,42.8,34.0,29.39,ESE,112,6.9,6.9,71,0.00,CLR,,0.00,WeatherDisplay:10.37,2013-04-09 22:57:00,
2013-04-09 17:02:00,43.2,34.0,29.39,ESE,112,5.8,5.8,70,0.00,CLR,,0.00,WeatherDisplay:10.37,2013-04-09 23:02:00,
2013-04-09 17:07:00,43.5,34.7,29.39,ESE,112,8.1,8.1,71,0.00,CLR,,0.00,WeatherDisplay:10.37,2013-04-09 23:07:00,
2013-04-09 17:12:00,44.1,34.5,29.39,South,180,2.3,2.3,69,0.00,CLR,,0.00,WeatherDisplay:10.37,2013-04-09 23:12:00,
2013-04-09 17:17:00,44.4,34.5,29.39,SE,135,5.8,5.8,68,0.00,CLR,,0.00,WeatherDisplay:10.37,2013-04-09 23:17:00,
2013-04-09 17:22:00,45.0,34.7,29.39,SE,135,3.5,3.5,67,0.00,CLR,,0.00,WeatherDisplay:10.37,2013-04-09 23:22:00,
2013-04-09 17:27:00,45.5,34.4,29.39,ESE,112,4.6,4.6,65,0.00,CLR,,0.00,WeatherDisplay:10.37,2013-04-09 23:27:00,
2013-04-09 17:32:00,46.0,34.5,29.40,ESE,112,3.5,3.5,64,0.00,CLR,,0.00,WeatherDisplay:10.37,2013-04-09 23:32:00,
2013-04-09 17:37:00,46.4,34.5,29.40,ESE,112,2.3,2.3,63,0.00,CLR,,0.00,WeatherDisplay:10.37,2013-04-09 23:37:00,
2013-04-09 17:42:00,46.8,34.4,29.40,ESE,112,4.7,4.7,62,0.00,CLR,,0.00,WeatherDisplay:10.37,2013-04-09 23:42:00,
2013-04-09 17:47:00,46.8,33.6,29.40,SE,135,3.5,3.5,60,0.00,CLR,,0.00,WeatherDisplay:10.37,2013-04-09 23:47:00,
2013-04-09 17:52:00,46.9,33.3,29.41,SE,135,3.1,3.1,59,0.00,CLR,,0.00,WeatherDisplay:10.37,2013-04-09 23:52:00,
2013-04-09 17:57:00,47.1,33.5,29.41,East,90,3.5,3.5,59,0.00,CLR,,0.00,WeatherDisplay:10.37,2013-04-09 23:57:00,
2013-04-09 18:02:00,47.1,33.1,29.41,SE,135,2.3,3.3,58,0.00,CLR,,0.00,WeatherDisplay:10.37,2013-04-10 00:02:00,
2013-04-09 18:07:00,47.1,33.1,29.41,ESE,112,3.5,3.5,58,0.00,CLR,,0.00,WeatherDisplay:10.37,2013-04-10 00:07:00,
2013-04-09 18:12:00,47.1,32.7,29.42,East,90,2.3,2.3,57,0.00,CLR,,0.00,WeatherDisplay:10.37,2013-04-10 00:12:00,
2013-04-09 18:17:00,47.1,32.7,29.42,SE,135,4.6,4.6,57,0.00,CLR,,0.00,WeatherDisplay:10.37,2013-04-10 00:17:00,
2013-04-09 18:22:00,47.1,32.7,29.42,ESE,112,3.5,3.5,57,0.00,CLR,,0.00,WeatherDisplay:10.37,2013-04-10 00:22:00,
2013-04-09 18:27:00,47.1,32.7,29.42,SSE,158,1.2,1.2,57,0.00,CLR,,0.00,WeatherDisplay:10.37,2013-04-10 00:27:00,
2013-04-09 18:32:00,47.1,32.2,29.42,SE,135,2.3,2.3,56,0.00,CLR,,0.00,WeatherDisplay:10.37,2013-04-10 00:32:00,
2013-04-09 18:37:00,46.9,32.0,29.42,SSE,158,1.2,1.2,56,0.00,CLR,,0.00,WeatherDisplay:10.37,2013-04-10 00:37:00,
2013-04-09 18:42:00,46.8,31.9,29.42,SE,135,1.4,1.4,56,0.00,CLR,,0.00,WeatherDisplay:10.37,2013-04-10 00:42:00,
2013-04-09 18:47:00,46.6,31.7,29.42,ESE,112,2.3,2.3,56,0.00,CLR,,0.00,WeatherDisplay:10.37,2013-04-10 00:47:00,
2013-04-09 18:52:00,46.4,31.5,29.42,SE,135,4.6,4.6,56,0.00,CLR,,0.00,WeatherDisplay:10.37,2013-04-10 00:52:00,
2013-04-09 18:57:00,46.2,31.8,29.42,ENE,68,5.8,5.8,57,0.00,CLR,,0.00,WeatherDisplay:10.37,2013-04-10 00:57:00,
2013-04-09 19:02:00,46.0,31.6,29.43,SE,135,4.6,4.6,57,0.00,CLR,,0.00,WeatherDisplay:10.37,2013-04-10 01:02:00,
2013-04-09 19:07:00,45.7,31.3,29.43,SE,135,6.9,6.9,57,0.00,CLR,,0.00,WeatherDisplay:10.37,2013-04-10 01:07:00,
2013-04-09 19:12:00,45.5,31.1,29.43,ESE,112,6.2,6.2,57,0.00,CLR,,0.00,WeatherDisplay:10.37,2013-04-10 01:12:00,
2013-04-09 19:17:00,45.3,31.0,29.43,ESE,112,4.6,5.6,57,0.00,CLR,,0.00,WeatherDisplay:10.37,2013-04-10 01:17:00,
2013-04-09 19:22:00,45.3,31.0,29.44,East,90,6.9,6.9,57,0.00,CLR,,0.00,WeatherDisplay:10.37,2013-04-10 01:22:00,
2013-04-09 19:27:00,45.1,30.8,29.44,ESE,112,5.6,5.6,57,0.00,CLR,,0.00,WeatherDisplay:10.37,2013-04-10 01:27:00,
2013-04-09 19:32:00,45.0,30.6,29.45,ESE,112,2.3,2.3,57,0.00,CLR,,0.00,WeatherDisplay:10.37,2013-04-10 01:32:00,
2013-04-09 19:37:00,45.0,31.1,29.45,SSE,158,3.5,3.5,58,0.00,CLR,,0.00,WeatherDisplay:10.37,2013-04-10 01:37:00,
2013-04-09 19:42:00,44.8,31.3,29.46,South,180,5.8,5.8,59,0.00,CLR,,0.00,WeatherDisplay:10.37,2013-04-10 01:42:00,
2013-04-09 19:47:00,44.6,31.6,29.46,South,180,4.0,4.0,60,0.00,CLR,,0.00,WeatherDisplay:10.37,2013-04-10 01:47:00,
2013-04-09 19:52:00,44.4,31.4,29.46,South,180,1.2,1.2,60,0.00,CLR,,0.00,WeatherDisplay:10.37,2013-04-10 01:52:00,
2013-04-09 19:57:00,44.4,31.4,29.46,SSE,158,2.0,2.0,60,0.00,CLR,,0.00,WeatherDisplay:10.37,2013-04-10 01:57:00,
2013-04-09 20:02:00,44.2,31.2,29.47,ESE,112,3.3,3.3,60,0.00,CLR,,0.00,WeatherDisplay:10.37,2013-04-10 02:02:00,
2013-04-09 20:08:00,44.2,31.6,29.47,SSW,202,2.3,2.3,61,0.00,CLR,,0.00,WeatherDisplay:10.37,2013-04-10 02:08:00,
2013-04-09 20:13:00,44.2,32.0,29.47,South,180,2.3,0.0,62,0.00,CLR,,0.00,WeatherDisplay:10.37,2013-04-10 02:13:00,
2013-04-09 20:18:00,44.1,31.9,29.47,ENE,68,2.3,2.3,62,0.00,CLR,,0.00,WeatherDisplay:10.37,2013-04-10 02:18:00,
2013-04-09 20:23:00,44.1,32.3,29.47,East,90,2.4,2.4,63,0.00,CLR,,0.00,WeatherDisplay:10.37,2013-04-10 02:23:00,
2013-04-09 20:28:00,43.9,32.1,29.48,East,90,3.5,3.5,63,0.00,CLR,,0.00,WeatherDisplay:10.37,2013-04-10 02:28:00,
2013-04-09 20:33:00,43.7,32.7,29.48,ESE,112,1.2,1.2,65,0.00,CLR,,0.00,WeatherDisplay:10.37,2013-04-10 02:33:00,
2013-04-09 20:38:00,43.2,32.9,29.48,North,0,1.2,1.2,67,0.00,CLR,,0.00,WeatherDisplay:10.37,2013-04-10 02:38:00,
2013-04-09 20:43:00,42.8,32.6,29.48,NE,45,2.0,2.0,67,0.00,CLR,,0.00,WeatherDisplay:10.37,2013-04-10 02:43:00,
2013-04-09 20:48:00,42.6,32.8,29.48,ENE,68,2.4,2.4,68,0.00,CLR,,0.00,WeatherDisplay:10.37,2013-04-10 02:48:00,
2013-04-09 20:53:00,42.4,32.6,29.48,ESE,112,2.3,2.3,68,0.00,CLR,,0.00,WeatherDisplay:10.37,2013-04-10 02:53:00,
2013-04-09 20:58:00,42.3,32.4,29.48,ESE,112,2.3,2.3,68,0.00,CLR,,0.00,WeatherDisplay:10.37,2013-04-10 02:58:00,
2013-04-09 21:03:00,42.1,32.3,29.48,ESE,112,4.6,4.6,68,0.00,CLR,,0.00,WeatherDisplay:10.37,2013-04-10 03:03:00,
2013-04-09 21:08:00,42.1,32.3,29.48,ESE,112,2.2,2.2,68,0.00,CLR,,0.00,WeatherDisplay:10.37,2013-04-10 03:08:00,
2013-04-09 21:13:00,41.9,32.1,29.48,ESE,112,2.3,2.3,68,0.00,CLR,,0.00,WeatherDisplay:10.37,2013-04-10 03:13:00,
2013-04-09 21:18:00,41.7,31.6,29.48,ENE,68,1.6,1.6,67,0.00,CLR,,0.00,WeatherDisplay:10.37,2013-04-10 03:18:00,
2013-04-09 21:23:00,41.7,31.6,29.48,ESE,112,2.3,2.3,67,0.00,CLR,,0.00,WeatherDisplay:10.37,2013-04-10 03:23:00,
2013-04-09 21:28:00,41.5,31.4,29.48,SSE,158,1.2,0.0,67,0.00,CLR,,0.00,WeatherDisplay:10.37,2013-04-10 03:28:00,
2013-04-09 21:33:00,41.5,31.4,29.48,SE,135,1.2,1.2,67,0.00,CLR,,0.00,WeatherDisplay:10.37,2013-04-10 03:33:00,
2013-04-09 21:38:00,41.4,31.2,29.49,SE,135,0.9,0.9,67,0.00,CLR,,0.00,WeatherDisplay:10.37,2013-04-10 03:38:00,
2013-04-09 21:43:00,41.4,31.2,29.49,SE,135,3.5,3.5,67,0.00,CLR,,0.00,WeatherDisplay:10.37,2013-04-10 03:43:00,
2013-04-09 21:48:00,41.4,31.2,29.49,ESE,112,2.3,2.3,67,0.00,CLR,,0.00,WeatherDisplay:10.37,2013-04-10 03:48:00,
2013-04-09 21:53:00,41.5,31.4,29.49,ESE,112,2.3,2.3,67,0.00,CLR,,0.00,WeatherDisplay:10.37,2013-04-10 03:53:00,
2013-04-09 21:58:00,41.7,31.6,29.49,ESE,112,2.6,2.6,67,0.00,CLR,,0.00,WeatherDisplay:10.37,2013-04-10 03:58:00,
2013-04-09 22:00:00,41.9,31.7,29.49,SSE,158,1.2,1.2,67,0.00,CLR,,0.00,WeatherDisplay:10.37,2013-04-10 04:00:00,
2013-04-09 22:05:00,42.1,31.9,29.50,SE,135,4.6,4.6,67,0.00,CLR,,0.00,WeatherDisplay:10.37,2013-04-10 04:05:00,
2013-04-09 22:10:00,42.1,31.9,29.49,SE,135,2.0,2.0,67,0.00,CLR,,0.00,WeatherDisplay:10.37,2013-04-10 04:10:00,
2013-04-09 22:15:00,42.1,31.5,29.49,SSE,158,4.7,4.7,66,0.00,CLR,,0.00,WeatherDisplay:10.37,2013-04-10 04:15:00,
2013-04-09 22:20:00,42.1,31.5,29.49,South,180,2.3,2.3,66,0.00,CLR,,0.00,WeatherDisplay:10.37,2013-04-10 04:20:00,
2013-04-09 22:25:00,41.9,31.0,29.49,South,180,3.5,3.5,65,0.00,CLR,,0.00,WeatherDisplay:10.37,2013-04-10 04:25:00,
2013-04-09 22:30:00,41.9,31.4,29.50,SSE,158,1.2,1.2,66,0.00,CLR,,0.00,WeatherDisplay:10.37,2013-04-10 04:30:00,
2013-04-09 22:35:00,41.9,31.4,29.50,SE,135,2.3,2.3,66,0.00,CLR,,0.00,WeatherDisplay:10.37,2013-04-10 04:35:00,
2013-04-09 22:40:00,42.1,31.5,29.50,South,180,3.6,3.6,66,0.00,CLR,,0.00,WeatherDisplay:10.37,2013-04-10 04:40:00,
2013-04-09 22:45:00,42.1,31.5,29.50,East,90,3.5,3.5,66,0.00,CLR,,0.00,WeatherDisplay:10.37,2013-04-10 04:45:00,
2013-04-09 22:50:00,42.1,31.9,29.50,SE,135,3.5,3.5,67,0.00,CLR,,0.00,WeatherDisplay:10.37,2013-04-10 04:50:00,
2013-04-09 22:55:00,42.1,31.9,29.50,ESE,112,2.3,2.3,67,0.00,CLR,,0.00,WeatherDisplay:10.37,2013-04-10 04:55:00,
2013-04-09 23:00:00,42.1,32.3,29.50,SSW,202,3.8,3.8,68,0.00,CLR,,0.00,WeatherDisplay:10.37,2013-04-10 05:00:00,
2013-04-09 23:05:00,42.1,32.3,29.50,ESE,112,4.6,4.6,68,0.00,CLR,,0.00,WeatherDisplay:10.37,2013-04-10 05:05:00,
2013-04-09 23:10:00,41.9,32.1,29.50,ESE,112,3.1,3.1,68,0.00,CLR,,0.00,WeatherDisplay:10.37,2013-04-10 05:10:00,
2013-04-09 23:15:00,41.9,31.7,29.50,South,180,5.8,5.8,67,0.00,CLR,,0.00,WeatherDisplay:10.37,2013-04-10 05:15:00,
2013-04-09 23:20:00,41.9,31.7,29.50,SSE,158,4.6,4.6,67,0.00,CLR,,0.00,WeatherDisplay:10.37,2013-04-10 05:20:00,
2013-04-09 23:25:00,41.7,31.6,29.50,WSW,248,3.5,3.5,67,0.00,CLR,,0.00,WeatherDisplay:10.37,2013-04-10 05:25:00,
2013-04-09 23:30:00,41.7,31.6,29.50,ESE,112,3.5,3.5,67,0.00,CLR,,0.00,WeatherDisplay:10.37,2013-04-10 05:30:00,
2013-04-09 23:35:00,41.7,31.6,29.51,SSE,158,4.6,4.6,67,0.00,CLR,,0.00,WeatherDisplay:10.37,2013-04-10 05:35:00,
2013-04-09 23:40:00,41.7,31.6,29.51,South,180,3.3,3.3,67,0.00,CLR,,0.00,WeatherDisplay:10.37,2013-04-10 05:40:00,
2013-04-09 23:45:00,41.7,31.6,29.51,South,180,3.5,3.5,67,0.00,CLR,,0.00,WeatherDisplay:10.37,2013-04-10 05:45:00,
2013-04-09 23:50:00,41.7,31.6,29.51,South,180,3.5,3.5,67,0.00,CLR,,0.00,WeatherDisplay:10.37,2013-04-10 05:50:00,
2013-04-09 23:55:00,41.7,31.6,29.51,ESE,112,2.4,2.4,67,0.00,CLR,,0.00,WeatherDisplay:10.37,2013-04-10 05:55:00,